When you browse on this site, cookies collect data to enhance your experience and personalize the content and advertising you see.
Visit our Privacy Policy to learn more. By continuing to use the site, you agree to this use of cookies and data.
  • In Hungary
  • List of Countries
  • For 7 days
  • Water Temperature
  • Satellite Maps
  • Weather Map
  • News
  • Weather Widgets
  • user-avatar
    Login

    Hourly Weather Mumbai

    Today, 17 July, Wednesday

    Time Temperature Precipitation Wind Pressure Humidity
    00:00 +30°C° 0.5 mm 4 mps 755 mmHg 82%
    01:00 +30°C° 0.5 mm 4 mps 754 mmHg 81%
    02:00 +30°C° 0.5 mm 5 mps 754 mmHg 81%
    03:00 +30°C° 0.5 mm 5 mps 754 mmHg 82%
    04:00 +29°C° 0.5 mm 5 mps 754 mmHg 83%
    05:00 +29°C° 0 mm 3 mps 754 mmHg 84%
    06:00 +30°C° 0.3 mm 3 mps 754 mmHg 81%
    07:00 +30°C° 0.3 mm 3 mps 754 mmHg 79%
    08:00 +31°C° 0.3 mm 3 mps 754 mmHg 76%
    09:00 +32°C° 0.3 mm 4 mps 754 mmHg 74%
    10:00 +33°C° 0.3 mm 5 mps 755 mmHg 72%
    11:00 +33°C° 0.3 mm 6 mps 755 mmHg 70%
    12:00 +33°C° 0.1 mm 6 mps 754 mmHg 70%
    13:00 +33°C° 0.1 mm 6 mps 754 mmHg 70%
    14:00 +33°C° 0.1 mm 6 mps 753 mmHg 69%
    15:00 +33°C° 0.1 mm 6 mps 753 mmHg 70%
    16:00 +33°C° 0.1 mm 6 mps 753 mmHg 71%
    17:00 +32°C° 0.1 mm 6 mps 753 mmHg 72%
    18:00 +32°C° 0.1 mm 5 mps 753 mmHg 74%
    19:00 +32°C° 0.1 mm 5 mps 754 mmHg 76%
    20:00 +30°C° 0.1 mm 5 mps 754 mmHg 79%
    21:00 +30°C° 0.1 mm 5 mps 754 mmHg 81%
    22:00 +30°C° 0.1 mm 5 mps 754 mmHg 83%
    23:00 +29°C° 0.1 mm 5 mps 754 mmHg 85%

    Tomorrow, 18 July, Thursday

    Time Temperature Precipitation Wind Pressure Humidity
    00:00 +29°C° 0.1 mm 4 mps 754 mmHg 85%
    01:00 +29°C° 0.1 mm 4 mps 753 mmHg 85%
    02:00 +29°C° 0.1 mm 4 mps 753 mmHg 86%
    03:00 +29°C° 0.2 mm 4 mps 753 mmHg 85%
    04:00 +29°C° 0.2 mm 3 mps 752 mmHg 84%
    05:00 +29°C° 0.2 mm 3 mps 752 mmHg 84%
    06:00 +29°C° 0.2 mm 3 mps 753 mmHg 81%
    07:00 +30°C° 0.2 mm 3 mps 753 mmHg 78%
    08:00 +30°C° 0.2 mm 4 mps 753 mmHg 75%
    09:00 +32°C° 0.1 mm 4 mps 753 mmHg 73%
    10:00 +32°C° 0.1 mm 4 mps 753 mmHg 72%
    11:00 +32°C° 0.1 mm 4 mps 754 mmHg 71%
    12:00 +33°C° 0.1 mm 4 mps 753 mmHg 70%
    13:00 +33°C° 0.1 mm 4 mps 753 mmHg 69%
    14:00 +33°C° 0.1 mm 4 mps 752 mmHg 69%
    15:00 +33°C° 0.1 mm 4 mps 752 mmHg 70%
    16:00 +32°C° 0.1 mm 4 mps 751 mmHg 71%
    17:00 +32°C° 0.1 mm 4 mps 751 mmHg 72%
    18:00 +32°C° 0.1 mm 4 mps 752 mmHg 75%
    19:00 +30°C° 0.1 mm 4 mps 752 mmHg 78%
    20:00 +30°C° 0.1 mm 4 mps 753 mmHg 81%
    21:00 +30°C° 0.2 mm 4 mps 753 mmHg 82%
    22:00 +30°C° 0.2 mm 4 mps 753 mmHg 83%
    23:00 +29°C° 0.2 mm 4 mps 753 mmHg 83%

    Day after tomorrow, 19 July, Friday

    Time Temperature Precipitation Wind Pressure Humidity
    00:00 +29°C° 0.2 mm 3 mps 752 mmHg 84%
    01:00 +29°C° 0.2 mm 3 mps 752 mmHg 84%
    02:00 +29°C° 0.2 mm 2 mps 752 mmHg 85%
    03:00 +29°C° 0.2 mm 2 mps 752 mmHg 84%
    04:00 +29°C° 0.2 mm 2 mps 752 mmHg 84%
    05:00 +28°C° 0.2 mm 2 mps 751 mmHg 84%
    06:00 +29°C° 0.2 mm 2 mps 752 mmHg 82%
    07:00 +29°C° 0.2 mm 2 mps 752 mmHg 79%
    08:00 +30°C° 0.2 mm 2 mps 753 mmHg 77%
    09:00 +30°C° 0.1 mm 2 mps 753 mmHg 75%
    10:00 +31°C° 0.1 mm 2 mps 753 mmHg 72%
    11:00 +31°C° 0.1 mm 2 mps 752 mmHg 70%
    12:00 +31°C° 0 mm 3 mps 752 mmHg 69%
    13:00 +33°C° 0 mm 3 mps 751 mmHg 69%
    14:00 +33°C° 0 mm 4 mps 751 mmHg 69%
    15:00 +33°C° 0 mm 4 mps 751 mmHg 70%
    16:00 +33°C° 0 mm 4 mps 751 mmHg 71%
    17:00 +32°C° 0 mm 4 mps 750 mmHg 72%
    18:00 +31°C° 0 mm 3 mps 751 mmHg 75%
    19:00 +31°C° 0 mm 3 mps 751 mmHg 77%
    20:00 +30°C° 0 mm 2 mps 752 mmHg 79%
    21:00 +30°C° 0 mm 2 mps 752 mmHg 80%
    22:00 +30°C° 0 mm 2 mps 752 mmHg 81%
    23:00 +30°C° 0 mm 2 mps 752 mmHg 82%

    20 July, Saturday

    Time Temperature Precipitation Wind Pressure Humidity
    00:00 +29°C° 0.1 mm 3 mps 752 mmHg 83%
    01:00 +29°C° 0.1 mm 3 mps 752 mmHg 84%
    02:00 +29°C° 0.1 mm 3 mps 751 mmHg 85%
    03:00 +29°C° 0.1 mm 3 mps 751 mmHg 85%
    04:00 +29°C° 0.1 mm 2 mps 751 mmHg 85%
    05:00 +29°C° 0.1 mm 2 mps 751 mmHg 84%
    06:00 +29°C° 0 mm 2 mps 752 mmHg 82%
    07:00 +30°C° 0 mm 2 mps 752 mmHg 80%
    08:00 +30°C° 0 mm 1 mps 753 mmHg 78%
    09:00 +30°C° 0.1 mm 2 mps 753 mmHg 78%
    10:00 +30°C° 0.1 mm 2 mps 753 mmHg 77%
    11:00 +30°C° 0.1 mm 2 mps 753 mmHg 76%
    12:00 +30°C° 0.2 mm 3 mps 753 mmHg 78%
    13:00 +30°C° 0.2 mm 3 mps 752 mmHg 80%
    14:00 +29°C° 0.2 mm 3 mps 752 mmHg 81%
    15:00 +29°C° 0.3 mm 3 mps 752 mmHg 81%
    16:00 +29°C° 0.3 mm 2 mps 752 mmHg 81%
    17:00 +28°C° 0.3 mm 1 mps 751 mmHg 81%
    18:00 +28°C° 0 mm 1 mps 751 mmHg 81%
    19:00 +28°C° 0 mm 1 mps 752 mmHg 81%
    20:00 +28°C° 0 mm 1 mps 752 mmHg 82%
    21:00 +28°C° 0 mm 1 mps 752 mmHg 81%
    22:00 +28°C° 0 mm 1 mps 752 mmHg 81%
    23:00 +28°C° 0 mm 1 mps 752 mmHg 81%

    21 July, Sunday

    Time Temperature Precipitation Wind Pressure Humidity
    00:00 +28°C° 0 mm 2 mps 752 mmHg 80%
    01:00 +28°C° 0 mm 2 mps 752 mmHg 80%
    02:00 +28°C° 0 mm 2 mps 751 mmHg 79%
    03:00 +28°C° 0 mm 2 mps 751 mmHg 79%
    04:00 +28°C° 0 mm 2 mps 751 mmHg 79%
    05:00 +28°C° 0 mm 3 mps 751 mmHg 79%
    06:00 +28°C° 0.4 mm 3 mps 751 mmHg 79%
    07:00 +28°C° 0.4 mm 2 mps 752 mmHg 78%
    08:00 +28°C° 0.4 mm 2 mps 752 mmHg 78%
    09:00 +28°C° 0.6 mm 2 mps 752 mmHg 78%
    10:00 +29°C° 0.6 mm 2 mps 752 mmHg 78%
    11:00 +29°C° 0.6 mm 2 mps 752 mmHg 79%
    12:00 +29°C° 0.2 mm 2 mps 752 mmHg 78%
    13:00 +29°C° 0.2 mm 2 mps 751 mmHg 77%
    14:00 +30°C° 0.2 mm 2 mps 751 mmHg 77%
    15:00 +30°C° 0 mm 2 mps 750 mmHg 76%
    16:00 +30°C° 0 mm 2 mps 750 mmHg 76%
    17:00 +30°C° 0 mm 2 mps 750 mmHg 75%
    18:00 +30°C° 0 mm 2 mps 750 mmHg 78%
    19:00 +29°C° 0 mm 2 mps 751 mmHg 80%
    20:00 +29°C° 0 mm 2 mps 752 mmHg 83%
    21:00 +29°C° 0 mm 2 mps 752 mmHg 84%
    22:00 +29°C° 0 mm 2 mps 752 mmHg 84%
    23:00 +29°C° 0 mm 3 mps 752 mmHg 85%

    22 July, Monday

    Time Temperature Precipitation Wind Pressure Humidity
    00:00 +29°C° 0.1 mm 3 mps 751 mmHg 86%
    01:00 +29°C° 0.1 mm 3 mps 751 mmHg 86%
    02:00 +29°C° 0.1 mm 3 mps 750 mmHg 87%
    03:00 +29°C° 0.3 mm 3 mps 750 mmHg 87%
    04:00 +29°C° 0.3 mm 3 mps 750 mmHg 86%
    05:00 +29°C° 0.3 mm 3 mps 751 mmHg 86%
    06:00 +29°C° 0.2 mm 3 mps 751 mmHg 85%
    07:00 +29°C° 0.2 mm 2 mps 751 mmHg 83%
    08:00 +30°C° 0.2 mm 2 mps 752 mmHg 81%
    09:00 +30°C° 0.3 mm 3 mps 752 mmHg 81%
    10:00 +30°C° 0.3 mm 3 mps 752 mmHg 81%
    11:00 +30°C° 0.3 mm 4 mps 752 mmHg 80%
    12:00 +30°C° 0.1 mm 4 mps 751 mmHg 78%
    13:00 +32°C° 0.1 mm 4 mps 751 mmHg 75%
    14:00 +32°C° 0.1 mm 4 mps 750 mmHg 72%
    15:00 +32°C° 0 mm 4 mps 750 mmHg 73%
    16:00 +32°C° 0 mm 5 mps 750 mmHg 74%
    17:00 +32°C° 0 mm 5 mps 750 mmHg 75%
    18:00 +30°C° 0 mm 5 mps 750 mmHg 77%
    19:00 +30°C° 0 mm 5 mps 750 mmHg 80%
    20:00 +29°C° 0 mm 4 mps 751 mmHg 83%
    21:00 +29°C° 0.3 mm 4 mps 751 mmHg 83%
    22:00 +29°C° 0.3 mm 4 mps 751 mmHg 83%
    23:00 +29°C° 0.3 mm 4 mps 751 mmHg 84%
    Show more